Year,Month,Day,Hour,Minute,Value (Times are PST for windgust in km/hr)
2015,12,12,00,01,6.40
2015,12,12,00,02,9.60
2015,12,12,00,03,8.10
2015,12,12,00,04,4.80
2015,12,12,00,05,4.80
2015,12,12,00,06,4.80
2015,12,12,00,07,3.20
2015,12,12,00,08,4.80
2015,12,12,00,09,6.40
2015,12,12,00,10,8.10
2015,12,12,00,11,8.10
2015,12,12,00,12,6.40
2015,12,12,00,13,6.40
2015,12,12,00,14,4.80
2015,12,12,00,15,3.20
2015,12,12,00,16,4.80
2015,12,12,00,17,1.60
2015,12,12,00,18,1.60
2015,12,12,00,19,4.80
2015,12,12,00,20,4.80
2015,12,12,00,21,3.20
2015,12,12,00,22,1.60
2015,12,12,00,23,3.20
2015,12,12,00,24,3.20
2015,12,12,00,25,1.60
2015,12,12,00,26,3.20
2015,12,12,00,28,3.20
2015,12,12,00,29,3.20
2015,12,12,00,30,1.60
2015,12,12,00,31,1.60
2015,12,12,00,32,1.60
2015,12,12,00,33,6.40
2015,12,12,00,34,6.40
2015,12,12,00,35,6.40
2015,12,12,00,36,6.40
2015,12,12,00,37,3.20
2015,12,12,00,38,3.20
2015,12,12,00,39,3.20
2015,12,12,00,40,4.80
2015,12,12,00,41,4.80
2015,12,12,00,42,4.80
2015,12,12,00,43,3.20
2015,12,12,00,44,3.20
2015,12,12,00,45,1.60
2015,12,12,00,46,1.60
2015,12,12,00,47,3.20
2015,12,12,00,48,3.20
2015,12,12,00,49,3.20
2015,12,12,00,50,3.20
2015,12,12,00,51,3.20
2015,12,12,00,52,3.20
2015,12,12,00,53,3.20
2015,12,12,00,54,3.20
2015,12,12,00,55,3.20
2015,12,12,00,56,3.20
2015,12,12,00,57,1.60
2015,12,12,00,59,1.60
2015,12,12,01,00,3.20
2015,12,12,01,01,4.80
2015,12,12,01,02,1.60
2015,12,12,01,03,1.60
2015,12,12,01,04,1.60
2015,12,12,01,05,1.60
2015,12,12,01,06,3.20
2015,12,12,01,07,3.20
2015,12,12,01,08,3.20
2015,12,12,01,09,3.20
2015,12,12,01,10,3.20
2015,12,12,01,26,4.80
2015,12,12,01,27,4.80
2015,12,12,01,28,4.80
2015,12,12,01,29,3.20
2015,12,12,01,30,3.20
2015,12,12,01,31,1.60
2015,12,12,01,32,1.60
2015,12,12,01,33,1.60
2015,12,12,01,34,3.20
2015,12,12,01,35,1.60
2015,12,12,01,36,1.60
2015,12,12,01,37,3.20
2015,12,12,01,38,3.20
2015,12,12,01,39,3.20
2015,12,12,01,40,3.20
2015,12,12,01,41,4.80
2015,12,12,01,42,4.80
2015,12,12,01,43,3.20
2015,12,12,01,44,4.80
2015,12,12,01,45,4.80
2015,12,12,01,46,4.80
2015,12,12,01,47,6.40
2015,12,12,01,48,6.40
2015,12,12,01,49,6.40
2015,12,12,01,50,8.10
2015,12,12,01,51,8.10
2015,12,12,01,52,6.40
2015,12,12,01,53,6.40
2015,12,12,01,54,4.80
2015,12,12,01,55,6.40
2015,12,12,01,56,4.80
2015,12,12,01,57,4.80
2015,12,12,01,58,6.40
2015,12,12,01,59,4.80
2015,12,12,02,00,6.40
2015,12,12,02,01,6.40
2015,12,12,02,02,4.80
2015,12,12,02,03,4.80
2015,12,12,02,04,4.80
2015,12,12,02,05,6.40
2015,12,12,02,06,4.80
2015,12,12,02,07,4.80
2015,12,12,02,08,4.80
2015,12,12,02,09,3.20
2015,12,12,02,10,1.60
2015,12,12,02,11,3.20
2015,12,12,02,12,4.80
2015,12,12,02,13,3.20
2015,12,12,02,14,3.20
2015,12,12,02,15,3.20
2015,12,12,02,16,3.20
2015,12,12,02,17,3.20
2015,12,12,02,18,3.20
2015,12,12,02,19,3.20
2015,12,12,02,20,1.60
2015,12,12,02,21,3.20
2015,12,12,02,22,3.20
2015,12,12,02,23,3.20
2015,12,12,02,24,3.20
2015,12,12,02,25,3.20
2015,12,12,02,26,1.60
2015,12,12,02,27,4.80
2015,12,12,02,28,4.80
2015,12,12,02,29,4.80
2015,12,12,02,30,3.20
2015,12,12,02,31,3.20
2015,12,12,02,32,1.60
2015,12,12,02,33,1.60
2015,12,12,02,35,1.60
2015,12,12,02,36,3.20
2015,12,12,02,43,1.60
2015,12,12,02,44,4.80
2015,12,12,02,45,3.20
2015,12,12,02,46,3.20
2015,12,12,02,47,4.80
2015,12,12,02,48,4.80
2015,12,12,02,49,6.40
2015,12,12,02,50,3.20
2015,12,12,02,51,4.80
2015,12,12,02,52,4.80
2015,12,12,02,53,3.20
2015,12,12,02,54,4.80
2015,12,12,02,55,4.80
2015,12,12,02,56,4.80
2015,12,12,02,57,3.20
2015,12,12,02,58,1.60
2015,12,12,03,01,1.60
2015,12,12,03,02,3.20
2015,12,12,03,03,6.40
2015,12,12,03,04,6.40
2015,12,12,03,05,4.80
2015,12,12,03,06,8.10
2015,12,12,03,07,8.10
2015,12,12,03,08,6.40
2015,12,12,03,09,6.40
2015,12,12,03,10,4.80
2015,12,12,03,11,4.80
2015,12,12,03,12,3.20
2015,12,12,03,13,3.20
2015,12,12,03,14,4.80
2015,12,12,03,15,1.60
2015,12,12,03,16,8.10
2015,12,12,03,17,11.30
2015,12,12,03,18,6.40
2015,12,12,03,19,6.40
2015,12,12,03,20,4.80
2015,12,12,03,21,6.40
2015,12,12,03,22,4.80
2015,12,12,03,23,6.40
2015,12,12,03,24,4.80
2015,12,12,03,25,3.20
2015,12,12,03,26,3.20
2015,12,12,03,27,4.80
2015,12,12,03,28,3.20
2015,12,12,03,29,3.20
2015,12,12,03,30,3.20
2015,12,12,03,31,4.80
2015,12,12,03,32,12.90
2015,12,12,03,33,11.30
2015,12,12,03,34,11.30
2015,12,12,03,35,9.60
2015,12,12,03,36,8.10
2015,12,12,03,37,8.10
2015,12,12,03,38,8.10
2015,12,12,03,39,9.60
2015,12,12,03,40,8.10
2015,12,12,03,41,4.80
2015,12,12,03,42,6.40
2015,12,12,03,43,4.80
2015,12,12,03,44,4.80
2015,12,12,03,45,6.40
2015,12,12,03,46,6.40
2015,12,12,03,47,4.80
2015,12,12,03,48,8.10
2015,12,12,03,49,6.40
2015,12,12,03,50,3.20
2015,12,12,03,51,4.80
2015,12,12,03,52,8.10
2015,12,12,03,53,11.30
2015,12,12,03,54,11.30
2015,12,12,03,55,12.90
2015,12,12,03,56,8.10
2015,12,12,03,57,6.40
2015,12,12,03,58,12.90
2015,12,12,03,59,11.30
2015,12,12,04,00,11.30
2015,12,12,04,01,11.30
2015,12,12,04,02,8.10
2015,12,12,04,03,9.60
2015,12,12,04,04,8.10
2015,12,12,04,05,6.40
2015,12,12,04,06,6.40
2015,12,12,04,07,6.40
2015,12,12,04,08,4.80
2015,12,12,04,09,4.80
2015,12,12,04,10,9.60
2015,12,12,04,11,8.10
2015,12,12,04,12,4.80
2015,12,12,04,13,8.10
2015,12,12,04,14,3.20
2015,12,12,04,15,6.40
2015,12,12,04,16,6.40
2015,12,12,04,17,8.10
2015,12,12,04,18,6.40
2015,12,12,04,19,6.40
2015,12,12,04,20,4.80
2015,12,12,04,21,8.10
2015,12,12,04,22,11.30
2015,12,12,04,23,11.30
2015,12,12,04,24,11.30
2015,12,12,04,25,9.60
2015,12,12,04,26,8.10
2015,12,12,04,27,8.10
2015,12,12,04,28,8.10
2015,12,12,04,29,6.40
2015,12,12,04,30,8.10
2015,12,12,04,31,9.60
2015,12,12,04,32,8.10
2015,12,12,04,33,6.40
2015,12,12,04,34,8.10
2015,12,12,04,35,6.40
2015,12,12,04,36,4.80
2015,12,12,04,37,11.30
2015,12,12,04,38,9.60
2015,12,12,04,39,9.60
2015,12,12,04,40,12.90
2015,12,12,04,41,11.30
2015,12,12,04,42,9.60
2015,12,12,04,43,8.10
2015,12,12,04,44,11.30
2015,12,12,04,45,11.30
2015,12,12,04,46,8.10
2015,12,12,04,47,11.30
2015,12,12,04,48,12.90
2015,12,12,04,49,11.30
2015,12,12,04,50,8.10
2015,12,12,04,51,12.90
2015,12,12,04,52,12.90
2015,12,12,04,53,11.30
2015,12,12,04,54,9.60
2015,12,12,04,55,6.40
2015,12,12,04,56,3.20
2015,12,12,04,57,4.80
2015,12,12,04,58,4.80
2015,12,12,04,59,8.10
2015,12,12,05,00,6.40
2015,12,12,05,01,4.80
2015,12,12,05,02,4.80
2015,12,12,05,03,6.40
2015,12,12,05,04,8.10
2015,12,12,05,05,6.40
2015,12,12,05,06,4.80
2015,12,12,05,07,3.20
2015,12,12,05,08,8.10
2015,12,12,05,09,9.60
2015,12,12,05,10,11.30
2015,12,12,05,11,8.10
2015,12,12,05,12,6.40
2015,12,12,05,13,4.80
2015,12,12,05,14,4.80
2015,12,12,05,15,3.20
2015,12,12,05,16,3.20
2015,12,12,05,17,4.80
2015,12,12,05,18,6.40
2015,12,12,05,19,6.40
2015,12,12,05,20,6.40
2015,12,12,05,21,3.20
2015,12,12,05,22,4.80
2015,12,12,05,23,4.80
2015,12,12,05,24,4.80
2015,12,12,05,25,6.40
2015,12,12,05,26,1.60
2015,12,12,05,27,6.40
2015,12,12,05,28,8.10
2015,12,12,05,29,9.60
2015,12,12,05,30,6.40
2015,12,12,05,31,6.40
2015,12,12,05,32,4.80
2015,12,12,05,33,4.80
2015,12,12,05,34,4.80
2015,12,12,05,35,8.10
2015,12,12,05,36,4.80
2015,12,12,05,37,4.80
2015,12,12,05,38,4.80
2015,12,12,05,39,8.10
2015,12,12,05,40,9.60
2015,12,12,05,41,6.40
2015,12,12,05,42,8.10
2015,12,12,05,43,6.40
2015,12,12,05,44,9.60
2015,12,12,05,45,9.60
2015,12,12,05,46,11.30
2015,12,12,05,47,11.30
2015,12,12,05,48,6.40
2015,12,12,05,49,6.40
2015,12,12,05,50,4.80
2015,12,12,05,51,6.40
2015,12,12,05,52,6.40
2015,12,12,05,53,8.10
2015,12,12,05,54,8.10
2015,12,12,05,55,3.20
2015,12,12,05,56,4.80
2015,12,12,05,57,8.10
2015,12,12,05,58,6.40
2015,12,12,05,59,9.60
2015,12,12,06,00,8.10
2015,12,12,06,01,9.60
2015,12,12,06,02,11.30
2015,12,12,06,03,14.50
2015,12,12,06,04,11.30
2015,12,12,06,05,11.30
2015,12,12,06,06,14.50
2015,12,12,06,07,17.70
2015,12,12,06,08,16.10
2015,12,12,06,09,9.60
2015,12,12,06,10,14.50
2015,12,12,06,11,11.30
2015,12,12,06,12,8.10
2015,12,12,06,13,8.10
2015,12,12,06,14,4.80
2015,12,12,06,15,9.60
2015,12,12,06,16,11.30
2015,12,12,06,17,8.10
2015,12,12,06,18,11.30
2015,12,12,06,19,11.30
2015,12,12,06,20,9.60
2015,12,12,06,21,11.30
2015,12,12,06,22,16.10
2015,12,12,06,23,11.30
2015,12,12,06,24,11.30
2015,12,12,06,25,9.60
2015,12,12,06,26,14.50
2015,12,12,06,27,11.30
2015,12,12,06,28,8.10
2015,12,12,06,29,6.40
2015,12,12,06,30,9.60
2015,12,12,06,31,11.30
2015,12,12,06,32,12.90
2015,12,12,06,33,9.60
2015,12,12,06,34,8.10
2015,12,12,06,35,4.80
2015,12,12,06,36,6.40
2015,12,12,06,37,4.80
2015,12,12,06,38,6.40
2015,12,12,06,39,6.40
2015,12,12,06,40,6.40
2015,12,12,06,41,4.80
2015,12,12,06,42,11.30
2015,12,12,06,43,12.90
2015,12,12,06,44,11.30
2015,12,12,06,45,9.60
2015,12,12,06,46,14.50
2015,12,12,06,47,22.50
2015,12,12,06,48,16.10
2015,12,12,06,49,19.30
2015,12,12,06,50,20.90
2015,12,12,06,51,24.20
2015,12,12,06,52,25.70
2015,12,12,06,53,25.70
2015,12,12,06,54,20.90
2015,12,12,06,55,16.10
2015,12,12,06,56,22.50
2015,12,12,06,57,16.10
2015,12,12,06,58,19.30
2015,12,12,06,59,19.30
2015,12,12,07,00,14.50
2015,12,12,07,01,17.70
2015,12,12,07,02,19.30
2015,12,12,07,03,17.70
2015,12,12,07,04,16.10
2015,12,12,07,05,12.90
2015,12,12,07,06,11.30
2015,12,12,07,07,9.60
2015,12,12,07,08,8.10
2015,12,12,07,09,11.30
2015,12,12,07,10,9.60
2015,12,12,07,11,9.60
2015,12,12,07,12,8.10
2015,12,12,07,13,8.10
2015,12,12,07,14,8.10
2015,12,12,07,15,6.40
2015,12,12,07,16,4.80
2015,12,12,07,17,8.10
2015,12,12,07,18,8.10
2015,12,12,07,19,6.40
2015,12,12,07,20,9.60
2015,12,12,07,21,6.40
2015,12,12,07,22,11.30
2015,12,12,07,23,11.30
2015,12,12,07,24,9.60
2015,12,12,07,25,4.80
2015,12,12,07,26,16.10
2015,12,12,07,27,14.50
2015,12,12,07,28,6.40
2015,12,12,07,29,11.30
2015,12,12,07,30,14.50
2015,12,12,07,31,8.10
2015,12,12,07,32,11.30
2015,12,12,07,33,11.30
2015,12,12,07,34,9.60
2015,12,12,07,35,8.10
2015,12,12,07,36,8.10
2015,12,12,07,37,6.40
2015,12,12,07,38,6.40
2015,12,12,07,39,9.60
2015,12,12,07,40,9.60
2015,12,12,07,41,9.60
2015,12,12,07,42,9.60
2015,12,12,07,43,12.90
2015,12,12,07,44,9.60
2015,12,12,07,45,16.10
2015,12,12,07,46,14.50
2015,12,12,07,47,17.70
2015,12,12,07,48,17.70
2015,12,12,07,49,14.50
2015,12,12,07,50,19.30
2015,12,12,07,51,20.90
2015,12,12,07,52,14.50
2015,12,12,07,53,16.10
2015,12,12,07,54,12.90
2015,12,12,07,55,16.10
2015,12,12,07,56,14.50
2015,12,12,07,57,14.50
2015,12,12,07,58,16.10
2015,12,12,07,59,9.60
2015,12,12,08,00,14.50
2015,12,12,08,01,11.30
2015,12,12,08,02,11.30
2015,12,12,08,03,17.70
2015,12,12,08,04,16.10
2015,12,12,08,05,14.50
2015,12,12,08,06,20.90
2015,12,12,08,07,22.50
2015,12,12,08,08,14.50
2015,12,12,08,09,17.70
2015,12,12,08,10,19.30
2015,12,12,08,11,22.50
2015,12,12,08,12,19.30
2015,12,12,08,13,17.70
2015,12,12,08,14,20.90
2015,12,12,08,15,16.10
2015,12,12,08,16,22.50
2015,12,12,08,17,19.30
2015,12,12,08,18,16.10
2015,12,12,08,19,17.70
2015,12,12,08,20,22.50
2015,12,12,08,21,25.70
2015,12,12,08,22,24.20
2015,12,12,08,23,24.20
2015,12,12,08,24,25.70
2015,12,12,08,25,25.70
2015,12,12,08,26,19.30
2015,12,12,08,27,24.20
2015,12,12,08,28,33.80
2015,12,12,08,29,32.20
2015,12,12,08,30,33.80
2015,12,12,08,31,24.20
2015,12,12,08,32,29.00
2015,12,12,08,33,22.50
2015,12,12,08,34,30.60
2015,12,12,08,35,33.80
2015,12,12,08,36,29.00
2015,12,12,08,37,30.60
2015,12,12,08,38,27.40
2015,12,12,08,39,24.20
2015,12,12,08,40,27.40
2015,12,12,08,41,27.40
2015,12,12,08,42,22.50
2015,12,12,08,43,27.40
2015,12,12,08,44,32.20
2015,12,12,08,45,35.40
2015,12,12,08,46,30.60
2015,12,12,08,47,30.60
2015,12,12,08,48,25.70
2015,12,12,08,49,24.20
2015,12,12,08,50,33.80
2015,12,12,08,51,25.70
2015,12,12,08,52,25.70
2015,12,12,08,53,24.20
2015,12,12,08,54,22.50
2015,12,12,08,55,20.90
2015,12,12,08,56,19.30
2015,12,12,08,57,24.20
2015,12,12,08,58,29.00
2015,12,12,08,59,24.20
2015,12,12,09,00,37.00
2015,12,12,09,01,32.20
2015,12,12,09,02,25.70
2015,12,12,09,03,25.70
2015,12,12,09,04,27.40
2015,12,12,09,05,24.20
2015,12,12,09,06,25.70
2015,12,12,09,07,25.70
2015,12,12,09,08,24.20
2015,12,12,09,09,25.70
2015,12,12,09,10,25.70
2015,12,12,09,11,22.50
2015,12,12,09,12,22.50
2015,12,12,09,13,22.50
2015,12,12,09,14,22.50
2015,12,12,09,15,25.70
2015,12,12,09,16,20.90
2015,12,12,09,17,24.20
2015,12,12,09,18,25.70
2015,12,12,09,19,25.70
2015,12,12,09,20,20.90
2015,12,12,09,21,27.40
2015,12,12,09,22,25.70
2015,12,12,09,23,33.80
2015,12,12,09,24,25.70
2015,12,12,09,25,29.00
2015,12,12,09,26,27.40
2015,12,12,09,27,29.00
2015,12,12,09,28,29.00
2015,12,12,09,29,30.60
2015,12,12,09,30,25.70
2015,12,12,09,31,25.70
2015,12,12,09,32,27.40
2015,12,12,09,33,19.30
2015,12,12,09,34,33.80
2015,12,12,09,35,27.40
2015,12,12,09,36,22.50
2015,12,12,09,37,22.50
2015,12,12,09,38,22.50
2015,12,12,09,39,29.00
2015,12,12,09,40,25.70
2015,12,12,09,41,30.60
2015,12,12,09,42,20.90
2015,12,12,09,43,27.40
2015,12,12,09,44,16.10
2015,12,12,09,45,17.70
2015,12,12,09,46,24.20
2015,12,12,09,47,22.50
2015,12,12,09,48,22.50
2015,12,12,09,49,29.00
2015,12,12,09,50,29.00
2015,12,12,09,51,25.70
2015,12,12,09,52,25.70
2015,12,12,09,53,20.90
2015,12,12,09,54,17.70
2015,12,12,09,55,19.30
2015,12,12,09,56,22.50
2015,12,12,09,57,22.50
2015,12,12,09,58,22.50
2015,12,12,09,59,27.40
2015,12,12,10,00,24.20
2015,12,12,10,01,27.40
2015,12,12,10,02,35.40
2015,12,12,10,03,30.60
2015,12,12,10,04,27.40
2015,12,12,10,05,25.70
2015,12,12,10,06,20.90
2015,12,12,10,07,29.00
2015,12,12,10,08,29.00
2015,12,12,10,09,33.80
2015,12,12,10,10,29.00
2015,12,12,10,11,25.70
2015,12,12,10,12,32.20
2015,12,12,10,13,25.70
2015,12,12,10,14,33.80
2015,12,12,10,15,20.90
2015,12,12,10,16,20.90
2015,12,12,10,17,27.40
2015,12,12,10,18,29.00
2015,12,12,10,19,24.20
2015,12,12,10,20,35.40
2015,12,12,10,21,33.80
2015,12,12,10,22,19.30
2015,12,12,10,23,24.20
2015,12,12,10,24,24.20
2015,12,12,10,25,24.20
2015,12,12,10,26,29.00
2015,12,12,10,27,33.80
2015,12,12,10,28,24.20
2015,12,12,10,29,27.40
2015,12,12,10,30,27.40
2015,12,12,10,31,29.00
2015,12,12,10,32,29.00
2015,12,12,10,33,40.20
2015,12,12,10,34,35.40
2015,12,12,10,35,32.20
2015,12,12,10,36,29.00
2015,12,12,10,37,30.60
2015,12,12,10,38,25.70
2015,12,12,10,39,33.80
2015,12,12,10,40,24.20
2015,12,12,10,41,33.80
2015,12,12,10,42,25.70
2015,12,12,10,43,35.40
2015,12,12,10,44,38.60
2015,12,12,10,45,35.40
2015,12,12,10,46,37.00
2015,12,12,10,47,37.00
2015,12,12,10,48,24.20
2015,12,12,10,49,29.00
2015,12,12,10,50,35.40
2015,12,12,10,51,37.00
2015,12,12,10,52,30.60
2015,12,12,10,53,25.70
2015,12,12,10,54,38.60
2015,12,12,10,55,38.60
2015,12,12,10,56,35.40
2015,12,12,10,57,27.40
2015,12,12,10,58,40.20
2015,12,12,10,59,35.40
2015,12,12,11,00,37.00
2015,12,12,11,01,41.80
2015,12,12,11,02,40.20
2015,12,12,11,03,33.80
2015,12,12,11,04,35.40
2015,12,12,11,05,30.60
2015,12,12,11,06,46.70
2015,12,12,11,07,37.00
2015,12,12,11,08,37.00
2015,12,12,11,09,41.80
2015,12,12,11,10,46.70
2015,12,12,11,11,37.00
2015,12,12,11,12,40.20
2015,12,12,11,13,41.80
2015,12,12,11,14,51.50
2015,12,12,11,15,53.10
2015,12,12,11,16,48.30
2015,12,12,11,17,46.70
2015,12,12,11,18,45.10
2015,12,12,11,19,41.80
2015,12,12,11,20,33.80
2015,12,12,11,21,56.30
2015,12,12,11,22,48.30
2015,12,12,11,23,46.70
2015,12,12,11,24,46.70
2015,12,12,11,25,33.80
2015,12,12,11,26,45.10
2015,12,12,11,27,41.80
2015,12,12,11,28,27.40
2015,12,12,11,29,35.40
2015,12,12,11,30,40.20
2015,12,12,11,31,48.30
2015,12,12,11,32,51.50
2015,12,12,11,33,41.80
2015,12,12,11,34,30.60
2015,12,12,11,35,37.00
2015,12,12,11,36,48.30
2015,12,12,11,37,43.50
2015,12,12,11,38,46.70
2015,12,12,11,39,53.10
2015,12,12,11,40,45.10
2015,12,12,11,41,38.60
2015,12,12,11,42,48.30
2015,12,12,11,43,41.80
2015,12,12,11,44,40.20
2015,12,12,11,45,45.10
2015,12,12,11,46,51.50
2015,12,12,11,47,30.60
2015,12,12,11,48,35.40
2015,12,12,11,49,29.00
2015,12,12,11,50,33.80
2015,12,12,11,51,32.20
2015,12,12,11,52,57.90
2015,12,12,11,53,53.10
2015,12,12,11,54,48.30
2015,12,12,11,55,48.30
2015,12,12,11,56,46.70
2015,12,12,11,57,49.90
2015,12,12,11,58,40.20
2015,12,12,11,59,46.70
2015,12,12,12,00,45.10
2015,12,12,12,01,38.60
2015,12,12,12,02,40.20
2015,12,12,12,03,43.50
2015,12,12,12,04,35.40
2015,12,12,12,05,43.50
2015,12,12,12,06,54.70
2015,12,12,12,07,53.10
2015,12,12,12,08,33.80
2015,12,12,12,09,37.00
2015,12,12,12,10,37.00
2015,12,12,12,11,37.00
2015,12,12,12,12,30.60
2015,12,12,12,13,37.00
2015,12,12,12,14,37.00
2015,12,12,12,15,40.20
2015,12,12,12,16,45.10
2015,12,12,12,17,38.60
2015,12,12,12,18,48.30
2015,12,12,12,19,49.90
2015,12,12,12,20,51.50
2015,12,12,12,21,48.30
2015,12,12,12,22,53.10
2015,12,12,12,23,49.90
2015,12,12,12,24,54.70
2015,12,12,12,25,49.90
2015,12,12,12,26,45.10
2015,12,12,12,27,40.20
2015,12,12,12,28,38.60
2015,12,12,12,29,57.90
2015,12,12,12,30,51.50
2015,12,12,12,31,49.90
2015,12,12,12,32,41.80
2015,12,12,12,33,54.70
2015,12,12,12,34,48.30
2015,12,12,12,35,46.70
2015,12,12,12,36,33.80
2015,12,12,12,37,41.80
2015,12,12,12,38,46.70
2015,12,12,12,39,62.70
2015,12,12,12,40,43.50
2015,12,12,12,41,43.50
2015,12,12,12,42,49.90
2015,12,12,12,43,43.50
2015,12,12,12,44,51.50
2015,12,12,12,45,38.60
2015,12,12,12,46,40.20
2015,12,12,12,47,40.20
2015,12,12,12,48,46.70
2015,12,12,12,49,51.50
2015,12,12,12,50,56.30
2015,12,12,12,51,53.10
2015,12,12,12,52,56.30
2015,12,12,12,53,45.10
2015,12,12,12,54,46.70
2015,12,12,12,55,53.10
2015,12,12,12,56,57.90
2015,12,12,12,57,48.30
2015,12,12,12,58,51.50
2015,12,12,12,59,41.80
2015,12,12,13,00,41.80
2015,12,12,13,01,37.00
2015,12,12,13,02,43.50
2015,12,12,13,03,43.50
2015,12,12,13,04,43.50
2015,12,12,13,05,53.10
2015,12,12,13,06,57.90
2015,12,12,13,07,48.30
2015,12,12,13,08,53.10
2015,12,12,13,09,49.90
2015,12,12,13,10,54.70
2015,12,12,13,11,56.30
2015,12,12,13,12,59.50
2015,12,12,13,13,45.10
2015,12,12,13,14,51.50
2015,12,12,13,15,43.50
2015,12,12,13,16,51.50
2015,12,12,13,17,57.90
2015,12,12,13,18,56.30
2015,12,12,13,19,41.80
2015,12,12,13,20,30.60
2015,12,12,13,21,30.60
2015,12,12,13,22,29.00
2015,12,12,13,23,40.20
2015,12,12,13,24,45.10
2015,12,12,13,25,35.40
2015,12,12,13,26,38.60
2015,12,12,13,27,46.70
2015,12,12,13,28,46.70
2015,12,12,13,29,53.10
2015,12,12,13,30,30.60
2015,12,12,13,31,32.20
2015,12,12,13,32,57.90
2015,12,12,13,33,61.20
2015,12,12,13,34,62.70
2015,12,12,13,35,53.10
2015,12,12,13,36,54.70
2015,12,12,13,37,38.60
2015,12,12,13,38,48.30
2015,12,12,13,39,59.50
2015,12,12,13,40,40.20
2015,12,12,13,41,54.70
2015,12,12,13,42,45.10
2015,12,12,13,43,48.30
2015,12,12,13,44,38.60
2015,12,12,13,45,43.50
2015,12,12,13,46,62.70
2015,12,12,13,47,54.70
2015,12,12,13,48,54.70
2015,12,12,13,49,46.70
2015,12,12,13,50,49.90
2015,12,12,13,51,54.70
2015,12,12,13,52,53.10
2015,12,12,13,53,51.50
2015,12,12,13,54,41.80
2015,12,12,13,55,54.70
2015,12,12,13,56,51.50
2015,12,12,13,57,51.50
2015,12,12,13,58,49.90
2015,12,12,13,59,40.20
2015,12,12,14,00,45.10
2015,12,12,14,01,48.30
2015,12,12,14,02,51.50
2015,12,12,14,03,40.20
2015,12,12,14,04,56.30
2015,12,12,14,05,67.60
2015,12,12,14,06,35.40
2015,12,12,14,07,64.40
2015,12,12,14,08,45.10
2015,12,12,14,09,64.40
2015,12,12,14,10,43.50
2015,12,12,14,11,56.30
2015,12,12,14,12,51.50
2015,12,12,14,13,40.20
2015,12,12,14,14,57.90
2015,12,12,14,15,49.90
2015,12,12,14,16,54.70
2015,12,12,14,17,49.90
2015,12,12,14,18,59.50
2015,12,12,14,19,61.20
2015,12,12,14,20,57.90
2015,12,12,14,21,57.90
2015,12,12,14,22,61.20
2015,12,12,14,23,49.90
2015,12,12,14,24,46.70
2015,12,12,14,25,51.50
2015,12,12,14,26,64.40
2015,12,12,14,27,38.60
2015,12,12,14,28,57.90
2015,12,12,14,29,54.70
2015,12,12,14,30,41.80
2015,12,12,14,31,59.50
2015,12,12,14,32,48.30
2015,12,12,14,33,43.50
2015,12,12,14,34,57.90
2015,12,12,14,35,64.40
2015,12,12,14,36,59.50
2015,12,12,14,37,59.50
2015,12,12,14,38,48.30
2015,12,12,14,39,48.30
2015,12,12,14,40,64.40
2015,12,12,14,41,51.50
2015,12,12,14,42,46.70
2015,12,12,14,43,48.30
2015,12,12,14,44,56.30
2015,12,12,14,45,54.70
2015,12,12,14,46,40.20
2015,12,12,14,47,45.10
2015,12,12,14,48,38.60
2015,12,12,14,49,49.90
2015,12,12,14,50,53.10
2015,12,12,14,51,43.50
2015,12,12,14,52,45.10
2015,12,12,14,53,40.20
2015,12,12,14,54,51.50
2015,12,12,14,55,57.90
2015,12,12,14,56,49.90
2015,12,12,14,57,51.50
2015,12,12,14,58,40.20
2015,12,12,14,59,61.20
2015,12,12,15,00,46.70
2015,12,12,15,01,53.10
2015,12,12,15,02,49.90
2015,12,12,15,03,46.70
2015,12,12,15,04,43.50
2015,12,12,15,05,41.80
2015,12,12,15,06,43.50
2015,12,12,15,07,56.30
2015,12,12,15,08,53.10
2015,12,12,15,09,33.80
2015,12,12,15,10,45.10
2015,12,12,15,11,43.50
2015,12,12,15,12,30.60
2015,12,12,15,13,35.40
2015,12,12,15,14,41.80
2015,12,12,15,15,43.50
2015,12,12,15,16,38.60
2015,12,12,15,17,33.80
2015,12,12,15,18,41.80
2015,12,12,15,19,29.00
2015,12,12,15,20,43.50
2015,12,12,15,21,29.00
2015,12,12,15,22,40.20
2015,12,12,15,23,41.80
2015,12,12,15,24,40.20
2015,12,12,15,25,41.80
2015,12,12,15,26,38.60
2015,12,12,15,27,40.20
2015,12,12,15,28,45.10
2015,12,12,15,29,35.40
2015,12,12,15,30,48.30
2015,12,12,15,31,41.80
2015,12,12,15,32,45.10
2015,12,12,15,33,41.80
2015,12,12,15,34,40.20
2015,12,12,15,35,46.70
2015,12,12,15,36,46.70
2015,12,12,15,37,37.00
2015,12,12,15,38,33.80
2015,12,12,15,39,33.80
2015,12,12,15,40,40.20
2015,12,12,15,41,30.60
2015,12,12,15,42,37.00
2015,12,12,15,43,41.80
2015,12,12,15,44,40.20
2015,12,12,15,45,30.60
2015,12,12,15,46,30.60
2015,12,12,15,47,33.80
2015,12,12,15,48,29.00
2015,12,12,15,49,32.20
2015,12,12,15,50,24.20
2015,12,12,15,51,22.50
2015,12,12,15,52,33.80
2015,12,12,15,53,29.00
2015,12,12,15,54,25.70
2015,12,12,15,55,24.20
2015,12,12,15,56,22.50
2015,12,12,15,57,20.90
2015,12,12,15,58,24.20
2015,12,12,15,59,33.80
2015,12,12,16,00,35.40
2015,12,12,16,01,22.50
2015,12,12,16,02,20.90
2015,12,12,16,03,22.50
2015,12,12,16,04,22.50
2015,12,12,16,05,22.50
2015,12,12,16,06,24.20
2015,12,12,16,07,32.20
2015,12,12,16,08,27.40
2015,12,12,16,09,24.20
2015,12,12,16,10,30.60
2015,12,12,16,11,22.50
2015,12,12,16,12,24.20
2015,12,12,16,13,20.90
2015,12,12,16,14,30.60
2015,12,12,16,15,35.40
2015,12,12,16,16,33.80
2015,12,12,16,17,30.60
2015,12,12,16,18,29.00
2015,12,12,16,19,33.80
2015,12,12,16,20,27.40
2015,12,12,16,21,35.40
2015,12,12,16,22,33.80
2015,12,12,16,23,35.40
2015,12,12,16,24,32.20
2015,12,12,16,25,25.70
2015,12,12,16,26,25.70
2015,12,12,16,27,30.60
2015,12,12,16,28,38.60
2015,12,12,16,29,29.00
2015,12,12,16,30,32.20
2015,12,12,16,31,29.00
2015,12,12,16,32,27.40
2015,12,12,16,33,27.40
2015,12,12,16,34,24.20
2015,12,12,16,35,29.00
2015,12,12,16,36,37.00
2015,12,12,16,37,43.50
2015,12,12,16,38,24.20
2015,12,12,16,39,30.60
2015,12,12,16,40,43.50
2015,12,12,16,41,35.40
2015,12,12,16,42,35.40
2015,12,12,16,43,40.20
2015,12,12,16,44,35.40
2015,12,12,16,45,40.20
2015,12,12,16,46,30.60
2015,12,12,16,47,35.40
2015,12,12,16,48,24.20
2015,12,12,16,49,22.50
2015,12,12,16,50,30.60
2015,12,12,16,51,40.20
2015,12,12,16,52,27.40
2015,12,12,16,53,29.00
2015,12,12,16,54,25.70
2015,12,12,16,55,25.70
2015,12,12,16,56,22.50
2015,12,12,16,57,29.00
2015,12,12,16,58,29.00
2015,12,12,16,59,35.40
2015,12,12,17,00,33.80
2015,12,12,17,01,32.20
2015,12,12,17,02,35.40
2015,12,12,17,03,29.00
2015,12,12,17,04,38.60
2015,12,12,17,05,35.40
2015,12,12,17,06,27.40
2015,12,12,17,07,38.60
2015,12,12,17,08,30.60
2015,12,12,17,09,30.60
2015,12,12,17,10,27.40
2015,12,12,17,11,48.30
2015,12,12,17,12,29.00
2015,12,12,17,13,33.80
2015,12,12,17,14,29.00
2015,12,12,17,15,32.20
2015,12,12,17,16,30.60
2015,12,12,17,17,37.00
2015,12,12,17,18,35.40
2015,12,12,17,19,27.40
2015,12,12,17,20,29.00
2015,12,12,17,21,24.20
2015,12,12,17,22,27.40
2015,12,12,17,23,29.00
2015,12,12,17,24,35.40
2015,12,12,17,25,20.90
2015,12,12,17,26,29.00
2015,12,12,17,27,20.90
2015,12,12,17,28,14.50
2015,12,12,17,29,35.40
2015,12,12,17,30,30.60
2015,12,12,17,31,20.90
2015,12,12,17,32,22.50
2015,12,12,17,33,24.20
2015,12,12,17,34,32.20
2015,12,12,17,35,22.50
2015,12,12,17,36,30.60
2015,12,12,17,37,30.60
2015,12,12,17,38,20.90
2015,12,12,17,39,22.50
2015,12,12,17,40,30.60
2015,12,12,17,41,32.20
2015,12,12,17,42,27.40
2015,12,12,17,43,30.60
2015,12,12,17,44,29.00
2015,12,12,17,45,25.70
2015,12,12,17,46,25.70
2015,12,12,17,47,33.80
2015,12,12,17,48,30.60
2015,12,12,17,49,35.40
2015,12,12,17,50,24.20
2015,12,12,17,51,33.80
2015,12,12,17,52,27.40
2015,12,12,17,53,27.40
2015,12,12,17,54,32.20
2015,12,12,17,55,27.40
2015,12,12,17,56,40.20
2015,12,12,17,57,38.60
2015,12,12,17,58,35.40
2015,12,12,17,59,37.00
2015,12,12,18,00,37.00
2015,12,12,18,01,41.80